Satellite: NOAA-15 Catalog number: 25338 Epoch time: 09316.93231600 Element set: 153 Inclination: 098.5994 deg RA of node: 302.9903 deg Eccentricity: 0.0010597 Arg of perigee: 350.1782 deg Mean anomaly: 009.9202 deg Mean motion: 14.24792614 rev/day Decay rate: 1.48e-06 rev/day^2 Epoch rev: 59795 Checksum: 317
Satellite: RESURS Catalog number: 25394 Epoch time: 09315.97802109 Element set: 355 Inclination: 098.3231 deg RA of node: 340.7068 deg Eccentricity: 0.0001926 Arg of perigee: 112.0386 deg Mean anomaly: 248.0999 deg Mean motion: 14.24190254 rev/day Decay rate: -3.0e-08 rev/day^2 Epoch rev: 58943 Checksum: 300
Satellite: FENGYUN1 Catalog number: 25730 Epoch time: 09315.95309887 Element set: 897 Inclination: 098.7702 deg RA of node: 281.7849 deg Eccentricity: 0.0021498 Arg of perigee: 153.6663 deg Mean anomaly: 206.5590 deg Mean motion: 14.08061899 rev/day Decay rate: 1.118e-05 rev/day^2 Epoch rev: 54111 Checksum: 339
Satellite: OKEAN-0 Catalog number: 25860 Epoch time: 09315.99612104 Element set: 834 Inclination: 097.8051 deg RA of node: 291.4524 deg Eccentricity: 0.0001800 Arg of perigee: 069.3586 deg Mean anomaly: 290.7822 deg Mean motion: 14.73596496 rev/day Decay rate: 3.3e-07 rev/day^2 Epoch rev: 55491 Checksum: 314
Satellite: NOAA-16 Catalog number: 26536 Epoch time: 09316.90210105 Element set: 633 Inclination: 099.1798 deg RA of node: 324.1933 deg Eccentricity: 0.0010055 Arg of perigee: 220.8753 deg Mean anomaly: 139.1648 deg Mean motion: 14.12537034 rev/day Decay rate: -1.69e-06 rev/day^2 Epoch rev: 47129 Checksum: 296
Satellite: NOAA-17 Catalog number: 27453 Epoch time: 09316.74185908 Element set: 626 Inclination: 098.4648 deg RA of node: 010.5492 deg Eccentricity: 0.0012491 Arg of perigee: 053.5318 deg Mean anomaly: 306.6986 deg Mean motion: 14.24106568 rev/day Decay rate: 1.46e-06 rev/day^2 Epoch rev: 38389 Checksum: 333
Satellite: NOAA-18 Catalog number: 28654 Epoch time: 09316.78886042 Element set: 112 Inclination: 098.9238 deg RA of node: 258.9773 deg Eccentricity: 0.0013748 Arg of perigee: 306.6553 deg Mean anomaly: 053.3359 deg Mean motion: 14.11300520 rev/day Decay rate: -1.18e-06 rev/day^2 Epoch rev: 23091 Checksum: 312
Satellite: NOAA-19 Catalog number: 33591 Epoch time: 09316.80087611 Element set: 318 Inclination: 098.7629 deg RA of node: 258.8020 deg Eccentricity: 0.0014006 Arg of perigee: 178.7071 deg Mean anomaly: 181.4133 deg Mean motion: 14.11000157 rev/day Decay rate: -8.9e-07 rev/day^2 Epoch rev: 3939 Checksum: 295
/EX SB KEPS @ AMSAT $ORB09316.M Orbital Elements 09316.MISC
HR AMSAT ORBITAL ELEMENTS FOR MANNED AND MISCELLANEOUS SATELLITES FROM WA5QGD FORT WORTH,TX November 12, 2009 Send Subscribe/unsubscribe to KEPS at http://www.amsat.org/mailman/listinfo/keps BID: ORB09316.M TO ALL RADIO AMATEURS BT
Satellite: HUBBLE Catalog number: 20580 Epoch time: 09316.14012007 Element set: 475 Inclination: 028.4700 deg RA of node: 216.6501 deg Eccentricity: 0.0003288 Arg of perigee: 057.2556 deg Mean anomaly: 302.8388 deg Mean motion: 15.00852723 rev/day Decay rate: 3.68e-06 rev/day^2 Epoch rev: 87210 Checksum: 267
Satellite: ISS Catalog number: 25544 Epoch time: 09317.03604006 Element set: 975 Inclination: 051.6431 deg RA of node: 262.1837 deg Eccentricity: 0.0006334 Arg of perigee: 326.7420 deg Mean anomaly: 130.2932 deg Mean motion: 15.76252177 rev/day Decay rate: 2.7475e-04 rev/day^2 Epoch rev: 62940 Checksum: 285
Satellite: CO-58 Catalog number: 28895 Epoch time: 09315.70712214 Element set: 439 Inclination: 098.0380 deg RA of node: 202.0196 deg Eccentricity: 0.0016892 Arg of perigee: 246.1717 deg Mean anomaly: 113.7713 deg Mean motion: 14.59812517 rev/day Decay rate: 3.9e-07 rev/day^2 Epoch rev: 21525 Checksum: 309
Satellite: FALCON Catalog number: 30776 Epoch time: 09315.93745764 Element set: 0699 Inclination: 035.4348 deg RA of node: 282.9189 deg Eccentricity: 0.0000418 Arg of perigee: 096.8023 deg Mean anomaly: 263.2748 deg Mean motion: 15.03362038 rev/day Decay rate: 3.54e-06 rev/day^2 Epoch rev: 14734 Checksum: 320
Satellite: MAST Catalog number: 31126 Epoch time: 09315.69557862 Element set: 729 Inclination: 097.9696 deg RA of node: 003.5977 deg Eccentricity: 0.0094733 Arg of perigee: 181.3537 deg Mean anomaly: 178.7423 deg Mean motion: 14.53528900 rev/day Decay rate: -4.0e-08 rev/day^2 Epoch rev: 13646 Checksum: 333
Satellite: CAPE1 Catalog number: 31130 Epoch time: 09316.08638674 Element set: 740 Inclination: 097.9710 deg RA of node: 001.8281 deg Eccentricity: 0.0102612 Arg of perigee: 186.7410 deg Mean anomaly: 173.2414 deg Mean motion: 14.52102425 rev/day Decay rate: 1.58e-06 rev/day^2 Epoch rev: 13615 Checksum: 260
Satellite: COMPASS Catalog number: 32787 Epoch time: 09316.87821707 Element set: 515 Inclination: 097.9256 deg RA of node: 019.3078 deg Eccentricity: 0.0014741 Arg of perigee: 269.7174 deg Mean anomaly: 090.2350 deg Mean motion: 14.81690392 rev/day Decay rate: 3.12e-06 rev/day^2 Epoch rev: 8346 Checksum: 314
Satellite: AAUSAT2 Catalog number: 32788 Epoch time: 09315.82068403 Element set: 509 Inclination: 097.9266 deg RA of node: 018.3464 deg Eccentricity: 0.0014036 Arg of perigee: 272.9722 deg Mean anomaly: 086.9881 deg Mean motion: 14.81819068 rev/day Decay rate: 5.71e-06 rev/day^2 Epoch rev: 8331 Checksum: 326
Satellite: DO-64 Catalog number: 32789 Epoch time: 09316.17930082 Element set: 524 Inclination: 097.9316 deg RA of node: 018.9667 deg Eccentricity: 0.0014613 Arg of perigee: 271.2205 deg Mean anomaly: 088.7333 deg Mean motion: 14.81848340 rev/day Decay rate: 3.92e-06 rev/day^2 Epoch rev: 8336 Checksum: 322
Satellite: CO-66 Catalog number: 32791 Epoch time: 09316.19578811 Element set: 505 Inclination: 097.9276 deg RA of node: 018.6639 deg Eccentricity: 0.0015192 Arg of perigee: 270.9144 deg Mean anomaly: 089.0318 deg Mean motion: 14.81506135 rev/day Decay rate: 8.5e-07 rev/day^2 Epoch rev: 8332 Checksum: 324
Satellite: RS-30 Catalog number: 32953 Epoch time: 09316.04910034 Element set: 451 Inclination: 082.5017 deg RA of node: 164.6909 deg Eccentricity: 0.0018161 Arg of perigee: 215.7828 deg Mean anomaly: 144.2034 deg Mean motion: 12.43003247 rev/day Decay rate: 1.0e-07 rev/day^2 Epoch rev: 6676 Checksum: 264
Satellite: TACSAT-3 Catalog number: 35001 Epoch time: 09316.79775877 Element set: 142 Inclination: 040.4547 deg RA of node: 071.5755 deg Eccentricity: 0.0022783 Arg of perigee: 190.0997 deg Mean anomaly: 169.9362 deg Mean motion: 15.39528408 rev/day Decay rate: 3.337e-05 rev/day^2 Epoch rev: 2725 Checksum: 328
Satellite: PHARMSAT Catalog number: 35002 Epoch time: 09316.45141526 Element set: 136 Inclination: 040.4680 deg RA of node: 072.6332 deg Eccentricity: 0.0025797 Arg of perigee: 191.8307 deg Mean anomaly: 168.2005 deg Mean motion: 15.40254806 rev/day Decay rate: 3.242e-05 rev/day^2 Epoch rev: 2720 Checksum: 258
Satellite: HAWKSAT1 Catalog number: 35003 Epoch time: 09315.66528578 Element set: 143 Inclination: 040.4604 deg RA of node: 076.2060 deg Eccentricity: 0.0025465 Arg of perigee: 190.6189 deg Mean anomaly: 169.4091 deg Mean motion: 15.41272475 rev/day Decay rate: 6.308e-05 rev/day^2 Epoch rev: 2710 Checksum: 283
Satellite: CP6 Catalog number: 35004 Epoch time: 09316.37326279 Element set: 136 Inclination: 040.4608 deg RA of node: 071.9023 deg Eccentricity: 0.0024830 Arg of perigee: 195.8031 deg Mean anomaly: 164.2031 deg Mean motion: 15.41432580 rev/day Decay rate: 7.491e-05 rev/day^2 Epoch rev: 2720 Checksum: 264
Satellite: AEROCUB3 Catalog number: 35005 Epoch time: 09316.72001073 Element set: 139 Inclination: 040.4727 deg RA of node: 070.3296 deg Eccentricity: 0.0025097 Arg of perigee: 195.3429 deg Mean anomaly: 164.6625 deg Mean motion: 15.41188833 rev/day Decay rate: 6.898e-05 rev/day^2 Epoch rev: 2725 Checksum: 302
Satellite: DRAGNSAT Catalog number: 35690 Epoch time: 09316.19745205 Element set: 103 Inclination: 051.6390 deg RA of node: 259.6437 deg Eccentricity: 0.0006193 Arg of perigee: 107.7606 deg Mean anomaly: 252.4032 deg Mean motion: 15.86613341 rev/day Decay rate: 4.8992e-04 rev/day^2 Epoch rev: 1658 Checksum: 300
Satellite: POLLUX Catalog number: 35693 Epoch time: 09315.86516791 Element set: 106 Inclination: 051.6393 deg RA of node: 261.9400 deg Eccentricity: 0.0005526 Arg of perigee: 074.5812 deg Mean anomaly: 285.5876 deg Mean motion: 15.85514762 rev/day Decay rate: 4.2022e-04 rev/day^2 Epoch rev: 1649 Checksum: 310
Satellite: CASTOR Catalog number: 35694 Epoch time: 09316.13087104 Element set: 98 Inclination: 051.6415 deg RA of node: 261.4970 deg Eccentricity: 0.0005567 Arg of perigee: 072.0828 deg Mean anomaly: 288.0751 deg Mean motion: 15.82782397 rev/day Decay rate: 2.0172e-04 rev/day^2 Epoch rev: 1652 Checksum: 304
Satellite: METEOR-M Catalog number: 35865 Epoch time: 09316.38940474 Element set: 52 Inclination: 098.7914 deg RA of node: 006.3905 deg Eccentricity: 0.0001449 Arg of perigee: 269.1993 deg Mean anomaly: 090.8996 deg Mean motion: 14.21827380 rev/day Decay rate: 1.76e-06 rev/day^2 Epoch rev: 791 Checksum: 328
Satellite: STERKH-2 Catalog number: 35866 Epoch time: 09316.37100179 Element set: 57 Inclination: 098.7923 deg RA of node: 006.4223 deg Eccentricity: 0.0002391 Arg of perigee: 272.1129 deg Mean anomaly: 087.9766 deg Mean motion: 14.22300318 rev/day Decay rate: 1.78e-06 rev/day^2 Epoch rev: 791 Checksum: 293
Satellite: FREGAT-I Catalog number: 35867 Epoch time: 09316.45368876 Element set: 64 Inclination: 097.3660 deg RA of node: 005.4709 deg Eccentricity: 0.0011781 Arg of perigee: 092.5373 deg Mean anomaly: 267.7116 deg Mean motion: 15.22761220 rev/day Decay rate: 2.269e-05 rev/day^2 Epoch rev: 848 Checksum: 314
/EX
participants (1)
-
Ray Hoad